When you browse on this site, cookies collect data to enhance your experience and personalize the content and advertising you see.
Visit our Privacy Policy to learn more. By continuing to use the site, you agree to this use of cookies and data.
  • en Suisse
  • Liste des pays
  • À 7 jours
  • Température de l'eau
  • Carte satellitaire
  • Carte météo
  • Widgets météo
  • user-avatar
    Se connecter

    Météo par heure à Kniatowy

    Ce jour, 25 Juin, Mardi

    Heure Température Précipitation Vent Pression Humidité
    00:00 +19°C° 0 mm 2 m/s 752 mmHg 83%
    01:00 +18°C° 0 mm 2 m/s 752 mmHg 86%
    02:00 +18°C° 0 mm 3 m/s 752 mmHg 87%
    03:00 +18°C° 0 mm 3 m/s 752 mmHg 88%
    04:00 +18°C° 0 mm 3 m/s 752 mmHg 89%
    05:00 +19°C° 0 mm 3 m/s 752 mmHg 84%
    06:00 +21°C° 0 mm 3 m/s 752 mmHg 79%
    07:00 +23°C° 0 mm 4 m/s 753 mmHg 74%
    08:00 +25°C° 0 mm 4 m/s 752 mmHg 70%
    09:00 +26°C° 0 mm 5 m/s 752 mmHg 66%
    10:00 +28°C° 0 mm 5 m/s 752 mmHg 63%
    11:00 +29°C° 0 mm 5 m/s 752 mmHg 60%
    12:00 +30°C° 0 mm 5 m/s 752 mmHg 58%
    13:00 +32°C° 0 mm 5 m/s 752 mmHg 55%
    14:00 +32°C° 0 mm 4 m/s 752 mmHg 54%
    15:00 +32°C° 0 mm 4 m/s 751 mmHg 53%
    16:00 +33°C° 0 mm 4 m/s 751 mmHg 52%
    17:00 +31°C° 0 mm 3 m/s 751 mmHg 59%
    18:00 +29°C° 0 mm 3 m/s 751 mmHg 65%
    19:00 +28°C° 0 mm 2 m/s 751 mmHg 71%
    20:00 +27°C° 0 mm 3 m/s 751 mmHg 74%
    21:00 +26°C° 0 mm 3 m/s 751 mmHg 78%
    22:00 +24°C° 0 mm 3 m/s 751 mmHg 82%
    23:00 +24°C° 0 mm 3 m/s 751 mmHg 85%

    Demain, 26 Juin, Mercredi

    Heure Température Précipitation Vent Pression Humidité
    00:00 +22°C° 0 mm 3 m/s 751 mmHg 87%
    01:00 +22°C° 0 mm 3 m/s 751 mmHg 89%
    02:00 +22°C° 0 mm 3 m/s 751 mmHg 89%
    03:00 +23°C° 0 mm 2 m/s 751 mmHg 89%
    04:00 +21°C° 0 mm 2 m/s 750 mmHg 90%
    05:00 +24°C° 0 mm 3 m/s 750 mmHg 84%
    06:00 +25°C° 0 mm 3 m/s 750 mmHg 78%
    07:00 +27°C° 0 mm 3 m/s 750 mmHg 73%
    08:00 +28°C° 0 mm 4 m/s 750 mmHg 66%
    09:00 +30°C° 0 mm 4 m/s 750 mmHg 59%
    10:00 +32°C° 0 mm 5 m/s 750 mmHg 52%
    11:00 +33°C° 0 mm 5 m/s 750 mmHg 50%
    12:00 +34°C° 0 mm 5 m/s 750 mmHg 48%
    13:00 +35°C° 0 mm 5 m/s 749 mmHg 46%
    14:00 +35°C° 0 mm 5 m/s 749 mmHg 47%
    15:00 +35°C° 0 mm 5 m/s 748 mmHg 47%
    16:00 +35°C° 0 mm 5 m/s 748 mmHg 47%
    17:00 +34°C° 0 mm 4 m/s 747 mmHg 53%
    18:00 +32°C° 0 mm 4 m/s 747 mmHg 59%
    19:00 +30°C° 0 mm 4 m/s 747 mmHg 65%
    20:00 +29°C° 0.1 mm 4 m/s 747 mmHg 67%
    21:00 +28°C° 0.1 mm 4 m/s 747 mmHg 69%
    22:00 +27°C° 0.1 mm 4 m/s 748 mmHg 72%
    23:00 +26°C° 0.3 mm 4 m/s 748 mmHg 78%

    Après-demain, 27 Juin, Jeudi

    Heure Température Précipitation Vent Pression Humidité
    00:00 +23°C° 0.3 mm 4 m/s 748 mmHg 85%
    01:00 +22°C° 0.3 mm 4 m/s 748 mmHg 92%
    02:00 +20°C° 0 mm 4 m/s 748 mmHg 92%
    03:00 +19°C° 0 mm 4 m/s 748 mmHg 93%
    04:00 +18°C° 0 mm 3 m/s 748 mmHg 93%
    05:00 +18°C° 0 mm 4 m/s 748 mmHg 89%
    06:00 +17°C° 0 mm 5 m/s 748 mmHg 85%
    07:00 +17°C° 0 mm 6 m/s 748 mmHg 81%
    08:00 +19°C° 0 mm 6 m/s 748 mmHg 74%
    09:00 +20°C° 0 mm 7 m/s 748 mmHg 67%
    10:00 +20°C° 0 mm 7 m/s 748 mmHg 61%
    11:00 +21°C° 0 mm 7 m/s 748 mmHg 56%
    12:00 +22°C° 0 mm 7 m/s 748 mmHg 52%
    13:00 +23°C° 0 mm 7 m/s 748 mmHg 47%
    14:00 +23°C° 0 mm 7 m/s 748 mmHg 49%
    15:00 +23°C° 0 mm 7 m/s 748 mmHg 51%
    16:00 +23°C° 0 mm 6 m/s 747 mmHg 53%
    17:00 +22°C° 0 mm 6 m/s 747 mmHg 57%
    18:00 +21°C° 0 mm 5 m/s 747 mmHg 62%
    19:00 +20°C° 0 mm 4 m/s 747 mmHg 67%
    20:00 +19°C° 0 mm 4 m/s 747 mmHg 71%
    21:00 +18°C° 0 mm 4 m/s 748 mmHg 75%
    22:00 +17°C° 0 mm 3 m/s 748 mmHg 78%
    23:00 +16°C° 0 mm 3 m/s 748 mmHg 83%

    28 Juin, Vendredi

    Heure Température Précipitation Vent Pression Humidité
    00:00 +16°C° 0 mm 3 m/s 748 mmHg 87%
    01:00 +14°C° 0 mm 3 m/s 748 mmHg 91%
    02:00 +14°C° 0 mm 3 m/s 748 mmHg 93%
    03:00 +14°C° 0 mm 2 m/s 748 mmHg 95%
    04:00 +14°C° 0 mm 2 m/s 748 mmHg 96%
    05:00 +14°C° 0 mm 3 m/s 748 mmHg 92%
    06:00 +16°C° 0 mm 3 m/s 748 mmHg 87%
    07:00 +17°C° 0 mm 4 m/s 748 mmHg 82%
    08:00 +18°C° 0 mm 4 m/s 748 mmHg 77%
    09:00 +19°C° 0 mm 5 m/s 748 mmHg 73%
    10:00 +20°C° 0 mm 6 m/s 748 mmHg 68%
    11:00 +21°C° 0.3 mm 6 m/s 748 mmHg 68%
    12:00 +21°C° 0.3 mm 6 m/s 748 mmHg 69%
    13:00 +21°C° 0.3 mm 6 m/s 748 mmHg 69%
    14:00 +21°C° 0.3 mm 6 m/s 748 mmHg 66%
    15:00 +22°C° 0.3 mm 6 m/s 748 mmHg 63%
    16:00 +22°C° 0.3 mm 6 m/s 748 mmHg 59%
    17:00 +21°C° 0 mm 6 m/s 748 mmHg 60%
    18:00 +20°C° 0 mm 5 m/s 748 mmHg 60%
    19:00 +19°C° 0 mm 4 m/s 748 mmHg 61%
    20:00 +17°C° 0 mm 3 m/s 749 mmHg 65%
    21:00 +16°C° 0 mm 2 m/s 749 mmHg 69%
    22:00 +14°C° 0 mm 1 m/s 749 mmHg 74%
    23:00 +13°C° 0 mm 1 m/s 749 mmHg 75%

    29 Juin, Samedi

    Heure Température Précipitation Vent Pression Humidité
    00:00 +13°C° 0 mm 1 m/s 750 mmHg 77%
    01:00 +11°C° 0 mm 0 m/s 750 mmHg 78%
    02:00 +11°C° 0 mm 0 m/s 750 mmHg 79%
    03:00 +12°C° 0 mm 1 m/s 750 mmHg 80%
    04:00 +12°C° 0 mm 1 m/s 750 mmHg 81%
    05:00 +14°C° 0 mm 1 m/s 750 mmHg 76%
    06:00 +15°C° 0 mm 2 m/s 750 mmHg 71%
    07:00 +17°C° 0 mm 2 m/s 750 mmHg 66%
    08:00 +19°C° 0 mm 2 m/s 750 mmHg 61%
    09:00 +20°C° 0 mm 3 m/s 750 mmHg 56%
    10:00 +22°C° 0 mm 3 m/s 750 mmHg 50%
    11:00 +22°C° 0 mm 3 m/s 750 mmHg 49%
    12:00 +24°C° 0 mm 3 m/s 749 mmHg 48%
    13:00 +23°C° 0 mm 4 m/s 749 mmHg 46%
    14:00 +24°C° 0 mm 3 m/s 749 mmHg 47%
    15:00 +24°C° 0 mm 3 m/s 749 mmHg 48%
    16:00 +24°C° 0 mm 3 m/s 749 mmHg 48%
    17:00 +23°C° 0 mm 2 m/s 749 mmHg 53%
    18:00 +23°C° 0 mm 2 m/s 748 mmHg 57%
    19:00 +22°C° 0 mm 1 m/s 748 mmHg 61%
    20:00 +21°C° 0 mm 1 m/s 748 mmHg 62%
    21:00 +20°C° 0 mm 1 m/s 748 mmHg 63%
    22:00 +18°C° 0 mm 2 m/s 749 mmHg 63%
    23:00 +17°C° 0 mm 2 m/s 749 mmHg 65%

    30 Juin, Dimanche

    Heure Température Précipitation Vent Pression Humidité
    00:00 +17°C° 0 mm 2 m/s 748 mmHg 66%
    01:00 +16°C° 0 mm 3 m/s 748 mmHg 68%
    02:00 +16°C° 0 mm 3 m/s 748 mmHg 69%
    03:00 +16°C° 0 mm 3 m/s 748 mmHg 70%
    04:00 +14°C° 0 mm 3 m/s 748 mmHg 72%
    05:00 +17°C° 0 mm 4 m/s 748 mmHg 68%
    06:00 +19°C° 0 mm 4 m/s 748 mmHg 64%
    07:00 +21°C° 0 mm 4 m/s 748 mmHg 60%
    08:00 +22°C° 0 mm 4 m/s 747 mmHg 55%
    09:00 +25°C° 0 mm 4 m/s 747 mmHg 50%
    10:00 +27°C° 0 mm 4 m/s 747 mmHg 45%
    11:00 +28°C° 0 mm 5 m/s 747 mmHg 44%
    12:00 +29°C° 0 mm 5 m/s 747 mmHg 42%
    13:00 +29°C° 0 mm 5 m/s 746 mmHg 41%
    14:00 +29°C° 0 mm 6 m/s 746 mmHg 43%
    15:00 +29°C° 0 mm 6 m/s 745 mmHg 45%
    16:00 +29°C° 0 mm 6 m/s 745 mmHg 46%
    17:00 +28°C° 0 mm 6 m/s 744 mmHg 52%
    18:00 +26°C° 0 mm 6 m/s 744 mmHg 58%
    19:00 +24°C° 0 mm 6 m/s 744 mmHg 63%
    20:00 +23°C° 0 mm 6 m/s 744 mmHg 66%
    21:00 +22°C° 0 mm 6 m/s 744 mmHg 69%
    22:00 +21°C° 0 mm 6 m/s 744 mmHg 72%
    23:00 +21°C° 0 mm 6 m/s 744 mmHg 72%
    Voir plus